Blacksburg, VA

5:01 PM EDT on July 22, 2017 (GMT -0400)
Virginia Tech

Weather History for KBCB - March, 2011

Change the Weather History Date:

Sunday, March 6, 2011

  Actual Average Record
Temperature  
Mean Temperature 41 °F 39 °F  
Max Temperature 53 °F 50 °F 76 °F (1976)
Min Temperature 28 °F 27 °F 3 °F (2015)
Degree Days  
Heating Degree Days 24 26  
Month to date heating degree days 143 162  
Since 1 July heating degree days 4198 4210  
Cooling Degree Days 0 0  
Month to date cooling degree days 0 0  
Year to date cooling degree days 0 0  
Moisture  
Dew Point 40 °F    
Average Humidity 93    
Maximum Humidity 100    
Minimum Humidity 85    
Precipitation  
Precipitation 1.50 in 0.10 in 1.50 in (2011)
Month to date precipitation 1.74 0.60  
Year to date precipitation 5.54 6.49  
Snow  
Snow T in - - ()
Month to date snowfall T  
Since 1 July snowfall 18.2  
Snow Depth 0.00 in    
Sea Level Pressure  
Sea Level Pressure 29.88 in    
Wind  
Wind Speed 9 mph (West)    
Max Wind Speed 20 mph    
Max Gust Speed 29 mph    
Visibility 9 miles    
Events Rain , Snow    
T = Trace of Precipitation, MM = Missing Value Source: NWS Daily Summary

Daily Weather History Graph

Daily Weather History Graph

Search for Another Location

Airport or City:

Trip Planner

Search our weather history database for the weather conditions in past years. The results will help you decide how hot, cold, wet, or windy it might be!

Date:

Astronomy

Mar. 06, 2011 Rise Set
Actual Time 6:46 AM EST 6:20 PM EST
Civil Twilight 6:20 AM EST 6:46 PM EST
Nautical Twilight 5:50 AM EST 7:16 PM EST
Astronomical Twilight 5:19 AM EST 7:46 PM EST
Moon 7:12 AM EST (3/6) 8:17 PM EST (3/6)
Length of Visible Light 12h 26m
Length of Day
11h 34m
Waxing Crescent, 3% of the Moon is Illuminated
Mar 6
Waxing Crescent
Mar 12
First Quarter
Mar 19
Full
Mar 26
Last Quarter
Apr 3
New

Hourly Weather History & Observations

Time (EST) Temp. Windchill Dew Point Humidity Pressure Visibility Wind Dir Wind Speed Gust Speed Precip Events Conditions
12:20 AM 50.0 °F - 50.0 °F 100% 30.01 in 7.0 mi SE 4.6 mph - 0.01 in   Light Drizzle
12:40 AM 51.8 °F - 51.8 °F 100% 30.00 in 7.0 mi SE 4.6 mph - 0.01 in   Drizzle
1:00 AM 51.8 °F - 51.8 °F 100% 30.00 in 7.0 mi SE 6.9 mph - N/A Rain Light Rain
1:20 AM 51.8 °F - 51.8 °F 100% 29.99 in 10.0 mi SSE 8.1 mph - N/A   Light Drizzle
1:40 AM 51.8 °F - 51.8 °F 100% 29.97 in 10.0 mi SSE 11.5 mph - N/A   Overcast
2:00 AM 51.8 °F - 51.8 °F 100% 29.97 in 7.0 mi SSE 8.1 mph 16.1 mph N/A   Overcast
2:20 AM 51.8 °F - 51.8 °F 100% 29.95 in 10.0 mi SSE 8.1 mph - N/A Rain Light Rain
2:40 AM 51.8 °F - 51.8 °F 100% 29.95 in 10.0 mi South 4.6 mph - N/A   Overcast
3:00 AM 51.8 °F - 51.8 °F 100% 29.94 in 10.0 mi SE 4.6 mph - N/A   Light Drizzle
3:40 AM 53.6 °F - 51.8 °F 94% 29.92 in 10.0 mi South 8.1 mph - N/A   Drizzle
4:00 AM 53.6 °F - 51.8 °F 94% 29.92 in 10.0 mi South 5.8 mph - N/A   Drizzle
4:20 AM 51.8 °F - 51.8 °F 100% 29.91 in 10.0 mi South 3.5 mph - 0.01 in   Drizzle
5:00 AM 53.6 °F - 51.8 °F 94% 29.90 in 10.0 mi South 6.9 mph - N/A Rain Light Rain
5:20 AM 53.6 °F - 50.0 °F 88% 29.89 in 10.0 mi South 5.8 mph - 0.01 in Rain Light Rain
5:40 AM 51.8 °F - 50.0 °F 94% 29.89 in 10.0 mi South 8.1 mph - 0.01 in Rain Rain
6:00 AM 51.8 °F - 50.0 °F 94% 29.88 in 10.0 mi SSE 4.6 mph - 0.01 in Rain Light Rain
6:20 AM 51.8 °F - 51.8 °F 100% 29.87 in 10.0 mi SE 3.5 mph - 0.02 in Rain Rain
6:40 AM 51.8 °F - 51.8 °F 100% 29.88 in 7.0 mi WNW 4.6 mph - 0.07 in Rain Rain
7:00 AM 50.0 °F - 50.0 °F 100% 29.87 in 7.0 mi Calm Calm - 0.04 in Rain Heavy Rain
7:20 AM 50.0 °F - 50.0 °F 100% 29.88 in 5.0 mi West 3.5 mph - 0.14 in Rain Heavy Rain
7:40 AM 50.0 °F - 50.0 °F 100% 29.87 in 7.0 mi WSW 4.6 mph - 0.22 in Rain Heavy Rain
8:00 AM 46.4 °F 41.9 °F 46.4 °F 100% 29.88 in 10.0 mi NW 9.2 mph 18.4 mph 0.01 in Rain Rain
8:20 AM 44.6 °F 40.2 °F 44.6 °F 100% 29.88 in 10.0 mi NW 8.1 mph - 0.07 in Rain Rain
8:40 AM 44.6 °F 40.7 °F 44.6 °F 100% 29.88 in 10.0 mi NNW 6.9 mph - 0.11 in Rain Rain
9:00 AM 44.6 °F 40.7 °F 44.6 °F 100% 29.88 in 10.0 mi NNW 6.9 mph - 0.02 in Rain Rain
9:20 AM 44.6 °F 40.7 °F 44.6 °F 100% 29.87 in 2.5 mi NNW 6.9 mph - 0.11 in Rain Rain
10:00 AM 42.8 °F 38.0 °F 42.8 °F 100% 29.85 in 10.0 mi NNW 8.1 mph - 0.02 in Rain Heavy Rain
10:20 AM 42.8 °F 38.6 °F 42.8 °F 100% 29.85 in 7.0 mi NW 6.9 mph - 0.09 in Rain Rain
10:40 AM 42.8 °F 38.6 °F 42.8 °F 100% 29.85 in 10.0 mi WNW 6.9 mph - 0.17 in Rain Rain
11:00 AM 41.0 °F 35.8 °F 41.0 °F 100% 29.85 in 7.0 mi West 8.1 mph - 0.03 in Rain Heavy Rain
11:20 AM 39.2 °F 34.2 °F 39.2 °F 100% 29.86 in 10.0 mi WNW 6.9 mph - 0.08 in Rain Rain
11:40 AM 39.2 °F 35.0 °F 39.2 °F 100% 29.85 in 5.0 mi West 5.8 mph - 0.14 in Rain Rain
12:00 PM 37.4 °F 32.8 °F 37.4 °F 100% 29.84 in 7.0 mi West 5.8 mph - 0.01 in Rain Rain
12:20 PM 37.4 °F 32.8 °F 37.4 °F 100% 29.83 in 7.0 mi West 5.8 mph - 0.05 in Rain Rain
1:00 PM 37.4 °F 31.4 °F 37.4 °F 100% 29.80 in 7.0 mi West 8.1 mph - N/A Rain Rain
1:20 PM 37.4 °F 32.1 °F 37.4 °F 100% 29.79 in 10.0 mi West 6.9 mph - 0.01 in Rain Rain
1:40 PM 35.6 °F 29.9 °F 35.6 °F 100% 29.80 in 7.0 mi West 6.9 mph 16.1 mph 0.02 in Rain Rain
2:00 PM 35.6 °F 28.6 °F 35.6 °F 100% 29.79 in 3.0 mi WNW 9.2 mph 16.1 mph 0.01 in Rain Rain
2:20 PM 35.6 °F 28.0 °F 35.6 °F 100% 29.79 in 4.0 mi WNW 10.4 mph 17.3 mph 0.03 in Rain Light Rain
2:40 PM 33.8 °F 23.9 °F 33.8 °F 100% 29.81 in 7.0 mi WNW 15.0 mph 24.2 mph 0.03 in Rain Light Rain
3:00 PM 33.8 °F 24.3 °F 33.8 °F 100% 29.80 in 7.0 mi WNW 13.8 mph 21.9 mph N/A Snow Light Snow
3:20 PM 33.8 °F 26.4 °F 33.8 °F 100% 29.80 in 10.0 mi NW 9.2 mph 18.4 mph N/A Rain Light Rain
3:40 PM 33.8 °F 27.0 °F 32.0 °F 93% 29.82 in 10.0 mi WNW 8.1 mph - N/A   Light Drizzle
4:20 PM 33.8 °F 27.0 °F 30.2 °F 87% 29.81 in 10.0 mi WNW 8.1 mph 18.4 mph N/A   Overcast
4:40 PM 33.8 °F 25.8 °F 30.2 °F 87% 29.82 in 10.0 mi WNW 10.4 mph 19.6 mph N/A   Overcast
5:00 PM 32.0 °F 22.1 °F 30.2 °F 93% 29.84 in 10.0 mi WNW 13.8 mph 19.6 mph N/A Snow Light Snow
5:20 PM 30.2 °F 18.9 °F 28.4 °F 93% 29.84 in 10.0 mi WNW 16.1 mph 25.3 mph N/A   Overcast
5:40 PM 30.2 °F 18.1 °F 28.4 °F 93% 29.84 in 10.0 mi NW 18.4 mph 23.0 mph N/A   Overcast
6:00 PM 30.2 °F 18.9 °F 28.4 °F 93% 29.84 in 10.0 mi WNW 16.1 mph 27.6 mph N/A   Overcast
6:20 PM 30.2 °F 18.9 °F 28.4 °F 93% 29.85 in 10.0 mi WNW 16.1 mph 29.9 mph N/A   Overcast
6:40 PM 30.2 °F 17.8 °F 28.4 °F 93% 29.87 in 7.0 mi NW 19.6 mph 29.9 mph N/A   Overcast
7:00 PM 30.2 °F 18.9 °F 28.4 °F 93% 29.88 in 7.0 mi WNW 16.1 mph 28.8 mph N/A   Overcast
7:20 PM 30.2 °F 17.4 °F 28.4 °F 93% 29.89 in 10.0 mi NW 20.7 mph 26.5 mph N/A   Overcast
7:40 PM 28.4 °F 17.0 °F 26.6 °F 93% 29.89 in 10.0 mi WNW 15.0 mph 24.2 mph N/A   Overcast
8:00 PM 28.4 °F 15.4 °F 26.6 °F 93% 29.90 in 10.0 mi NW 19.6 mph 27.6 mph N/A   Overcast
8:20 PM 28.4 °F 15.8 °F 26.6 °F 93% 29.92 in 10.0 mi WNW 18.4 mph 33.4 mph N/A   Overcast
8:40 PM 28.4 °F 15.4 °F 26.6 °F 93% 29.94 in 10.0 mi NW 19.6 mph 27.6 mph N/A   Overcast
9:00 PM 28.4 °F 18.0 °F 26.6 °F 93% 29.95 in 10.0 mi WNW 12.7 mph 24.2 mph N/A   Overcast
9:20 PM 28.4 °F 15.4 °F 26.6 °F 93% 29.97 in 10.0 mi NW 19.6 mph 29.9 mph N/A   Overcast
9:40 PM 28.4 °F 17.0 °F 26.6 °F 93% 29.97 in 10.0 mi WNW 15.0 mph 26.5 mph N/A   Overcast
10:00 PM 28.4 °F 18.0 °F 26.6 °F 93% 29.97 in 10.0 mi NW 12.7 mph 23.0 mph N/A   Overcast
10:20 PM 30.2 °F 21.9 °F 26.6 °F 86% 29.97 in 10.0 mi WNW 9.2 mph 18.4 mph N/A   Overcast
10:40 PM 30.2 °F 19.3 °F 26.6 °F 86% 29.97 in 10.0 mi WNW 15.0 mph 20.7 mph N/A   Overcast
11:00 PM 30.2 °F 21.3 °F 26.6 °F 86% 29.98 in 10.0 mi NW 10.4 mph 16.1 mph N/A   Overcast
11:20 PM 30.2 °F 19.8 °F 26.6 °F 86% 29.97 in 10.0 mi NW 13.8 mph 19.6 mph N/A   Overcast
11:40 PM 30.2 °F 23.4 °F 26.6 °F 86% 29.97 in 10.0 mi NW 6.9 mph - N/A   Overcast